Location: Gönnheim
(49.4488°N, 8.2383°E)
Time: 06:34:58
(UTC+00:00)

Cosmos 1812 Rocket - Pass Details

Date: 19 May 2025
Orbit: 601 x 624 km, 82.5° (Epoch: 14 June)

Event Time Altitude Azimuth Distance (km) Brightness Sun altitude
Exits shadow 20:48:58 18° 163° (SSE) 1,513 5.0 -12.6°
Maximum altitude 20:51:58 49° 94° (E) 784 3.8 -12.9°
Drops below altitude 10° 20:56:09 10° 20° (NNE) 1,959 6.6 -13.3°
Sets 20:58:25 0° 15° (NNE) 2,869 7.6 -13.5°
